Погода в Шумихе

Погода в Шумихе : погода сейчас, прогноз погоды и архив. Всё, что Вы хотите узнать о погоде в Шумихе!

Хотите узнать прогноз погоды в Шумихе? Тогда Вам сюда: Погода в Шумихе

Поиск расширенной информации на нашем сайте:

Другие новости

Новости СМИ2

Главная страница сайта

Новости сайта

02.10.2013

Напоминаем, что на нашем новом сайте вы можете получить высокодетализированные прогнозы погоды по пунктам России, СНГ и мира (включающие важные для авиации метеовеличины, такие как направление и скорость ветра, видимость, явления погоды, количество и форма облачности, нижняя и верхняя граница облачности), а также ознакомиться с разнообразными материалами по авиационной метеорологии и подборкой полезных ссылок на эту тему.

Сайт Метеоцентр.Азия посвящён разработке технологий оптимизации авиаметеорологического обслуживания, включая проектирование и перспективное создание нескольких автоматизированных авиаметеорологических систем:
- система выпуска высокодетальных прогностических карт явлений погоды для нижнего воздушного пространства по России и ближнему зарубежью;
- система верификации прогнозов TAF (выпускаемых синоптиками официальных АМСГ РФ и ближнего зарубежья) и AUTOTAF (выпускаемых сайтом Метеоцентр.Азия) - выявление ошибок, онлайн-сопоставление с фактической погодой METAR, автоматическое внесение коррективов в прогнозы при резком отклонении фактической погоды от прогноза, подсчёт оправдываемости прогнозов по элементам и в целом;
- система обработки, анализа и отображения авиаметеорологической информации для применения провайдерами метеорологической информации.

Рекомендуем: плитка под кожу

Погода в Шумихе - сегодня

Время (UTC), дата Ветер
(°,м/с) 
Видим.   Явления Облачность Т
(°С)
Тd
(°С)
f(%) Тe
(°С)
Pmin
(гПа)
dP
(гПа)
Po
(мм)
O2
(г/м3)
Тmin Tmax R s Состояние
почвы
21 21.03.17 130 (ЮВ) 20000 м    ясно 
-10.2 -15.2 67 -12  1035.3  0.1  759  319           
00 22.03.17 150 (ЮВ) 20000 м    ясно 
-12.3 -17.3 66 -14  1036.1  0.5  759  322           
03 22.03.17 110 (В) 20000 м    ясно 
-11.1 -16.8 63 -11  1036.3  0.3  759  320  -16.7      42  равномерный
сухой снег
100% 
06 22.03.17 140 (ЮВ) 20000 м    ясно 
-5.8 -15.6 46 -7  1036.1  0.3  760  314           
09 22.03.17 160 (Ю) 20000 м    ясно 
-0.4 -14.8 33 -2  1035.6  760  308           
12 22.03.17 140 (ЮВ) 20000 м    ясно 
+0.6 -13.7 33 -1  1034.6  -0.9  759  306           
15 22.03.17 150 (ЮВ) 20000 м    ясно 
-2.9 -15.6 37 -4  1034.8  0.1  759  310    +0.9       
18 22.03.17 120 (ЮВ) 20000 м    ясно 
-5.7 -15.3 47 -7  1034.6  -0.5  759  313           
21 22.03.17 140 (ЮВ) 20000 м    ясно 
-7.9 -14.1 61 -9  1034.1  -0.7  758  316           
00 23.03.17 130 (ЮВ) 20000 м    ясно 
-9.1 -13.4 71 -11  1033.2  -0.9  757  317           
03 23.03.17 140 (ЮВ) 20000 м    3/0 верхняя 
[Ci sp]
-9.8 -13.9 72 -12  1032.7  -0.6  757  318  -11.8      42  равномерный
сухой снег
100% 
06 23.03.17 140 (ЮВ) 20000 м    3/0 верхняя 
[Ci sp]
-3.7 -12.5 50 -5  1031.1  -1  756  310           
09 23.03.17 140 (ЮВ) 20000 м    5/0 верхняя 
[Ci sp]
+0.1 -10.6 44 -2  1028.7  -2  755  305           
12 23.03.17 140 (ЮВ) 20000 м    8/0 верхняя 
[Ci sp]
+1.8 -10.2 41 1026.5  -2  753  302           
15 23.03.17 180 (Ю) 20000 м    8/0 верхняя 
[Ci sp]
-2.3 -9.6 57 -2  1025.5  -1.2  752  307    +1.9       
18 23.03.17 190 (Ю) 20000 м    3/0 верхняя 
[Ci sp]
-6.7 -10.3 75 -6  1024.2  -1.7  751  311           
21 23.03.17 190 (Ю) 20000 м    ясно 
-11.1 -12.9 87 -11  1022.5  -2  749  316           
00 24.03.17 200 (Ю) 0500 м  туман  4/0 верхняя 
[Ci sp]
-11.6 -13.5 86 -11  1020.5  -2  748  316           
03 24.03.17 200 (Ю) 20000 м  {туман}  3/0 верхняя 
[Ci sp]
-12.1 -14.2 84 -12  1019.6  -0.9  747  316  -14.9      42  равномерный
сухой снег
100% 
06 24.03.17 240 (ЮЗ) 20000 м  {туман}  4/0 верхняя 
[Ci sp]
-4.6 -9.5 69 -6  1017.6  -1.3  746  307           
09 24.03.17 310 (СЗ) 20000 м    8/0 средняя, верхняя 
[Ac trans|Ci sp]
+2.8 -4.8 57 +1  1015.4  -1.6  745  298           
12 24.03.17 310 (СЗ) 20000 м    10/0 средняя 
[Ac As]
+2.4 -3.4 65 +2  1014.9  -0.5  745  298           
15 24.03.17 310 (СЗ) 20000 м    9/0 средняя 
[As trans]
+0.9 -2 81 1015.7  0.6  745  299    +3.1       
18 24.03.17 310 (СЗ) 20000 м    10/0 средняя 
[As op]
+0.9 -3.2 74 -1  1016.4  0.7  746  300           
21 24.03.17 300 (СЗ) 20000 м    9/0 средняя 
[As trans]
+0.3 -6.1 62 -1  1017.2  0.7  746  301           
Время (UTC), дата Ветер
(°,м/с) 
Видим.   Явления Облачность Т
(°С)
Тd
(°С)
f(%) Тe
(°С)
Pmin
(гПа)
dP
(гПа)
Po
(мм)
O2
(г/м3)
Тmin Tmax R s Состояние
почвы

Для получения пояснительной информации подведите курсор к названию столбца.

ПОГОДА в Шумихе - архив

Всё, что Вы хотите узнать о погоде в Шумихе - удобно и подробно!

Выберите нужную дату (начиная с 1 января 2015* года) и нажмите кнопку "Найти".
Будут отображены архивные сводки погоды по пункту Шумиха, начиная с указанной даты.


Отображать данные в формате CSV (для использования в таблицах Excel)


Внимание! Наш архив погоды предназначен исключительно для личного некоммерческого использования в познавательных целях. Если Вам необходимы официальные справки о состоянии погоды (для производственных, юридических, коммерческих и т.п. целей), обращайтесь в органы Росгидромета.

*Примечание: данная дата относится к архиву по метеостанциям СССР (Россия, СНГ, Балтия).
Архив по метеостанциям Зарубежной Европы и Азии (кроме Китая) хранится 10 дней, по другим регионам земного шара (Китай, Африка, Америка, Австралия, Океания) - 1 день.

Шумиха - район местоположения метеостанции


Название, широта, долгота, высота метеостанции:
Шумиха 55.2°ш. 63.3°д. 178 м над ур. моря [Российская Федерация]

Дополнительная информация

В oтличие oт бoльшинства пoгoдных сайтoв мы публикуем пoдрoбную метеoинфoрмацию в детальнoм прoфессиoнальнoм фoрмате.

Характеристики температуры и влажнoсти вoздуха измеряются на высoте 2 м в тени вдали oт зданий и деревьев.
Скoрoсть ветра измеряется на высoте 10 м (на урoвне рoста челoвека скoрoсть ветра ниже в 1.5-2 раза). Если метеoстанция нахoдится в гoрoде или в лесу, тo скoрoсть ветра занижена на 2-4 м/с пo сравнению с oткрытым местoм. Скoрoсть ветра над акватoриями крупных рек и oзёр, а также на вершинах хoлмoв на 2-5 м/с выше, чем в oбычных услoвиях.
Атмoсфернoе давление в разных тoчках местнoсти мoжет значительнo oтличаться oт давления на метеoстанции, в зависимoсти oт услoвий рельефа (при пoдъёме на 10 м давление пoнижается примернo на 1 мм рт.ст.).